GW6738 Weather Reports


time (UTC)temp
C
wind
direction
speed
KPH
gust
KPH
rain 1hr
cm
rain 24hr
cm
rain mn
cm
humidity
%
barometer
mb
20260503055006 5 303 0.0 3.2 0.00 0.00 0.00 81 1016.7
20260503054518 5 303 0.0 0.0 0.00 0.00 0.00 80 1016.7
20260503054006 5 303 0.0 0.0 0.00 0.00 0.00 80 1016.6
20260503053508 5 303 0.0 0.0 0.00 0.00 0.00 80 1016.6
20260503053022 5 303 0.0 0.0 0.00 0.00 0.00 80 1016.6
20260503052507 5 303 0.0 0.0 0.00 0.00 0.00 80 1016.7
20260503052008 5 303 0.0 0.0 0.00 0.00 0.00 79 1016.6
20260503051527 5 303 0.0 0.0 0.00 0.00 0.00 79 1016.6
20260503051012 5 303 0.0 0.0 0.00 0.00 0.00 80 1016.6
20260503050512 5 303 0.0 0.0 0.00 0.00 0.00 80 1016.5
20260503050026 6 303 0.0 0.0 0.00 0.00 0.00 80 1016.5
20260503045507 6 303 0.0 3.2 0.00 0.00 0.00 78 1016.5
20260503045012 6 303 0.0 3.2 0.00 0.00 0.00 76 1016.5
20260503044522 6 303 0.0 3.2 0.00 0.00 0.00 78 1016.5
20260503044008 6 303 0.0 0.0 0.00 0.00 0.00 77 1016.4
20260503043506 6 303 0.0 1.6 0.00 0.00 0.00 78 1016.5
20260503043020 6 303 0.0 1.6 0.00 0.00 0.00 78 1016.4
20260503042507 6 303 0.0 0.0 0.00 0.00 0.00 79 1016.3
20260503042008 6 303 0.0 0.0 0.00 0.00 0.00 79 1016.2
20260503041522 6 303 0.0 0.0 0.00 0.00 0.00 79 1016.2
20260503041007 6 303 0.0 3.2 0.00 0.00 0.00 78 1016.1
20260503040509 6 303 0.0 3.2 0.00 0.00 0.00 77 1016.0
20260503040029 7 303 0.0 0.0 0.00 0.00 0.00 77 1016.0
20260503035514 7 303 0.0 0.0 0.00 0.00 0.00 75 1015.9
20260503035007 7 303 0.0 0.0 0.00 0.00 0.00 75 1015.9
20260503034526 7 303 0.0 0.0 0.00 0.00 0.00 75 1015.9
20260503034007 7 303 0.0 0.0 0.00 0.00 0.00 74 1015.8
20260503033506 7 303 0.0 3.2 0.00 0.00 0.00 74 1015.8
20260503033018 7 303 0.0 3.2 0.00 0.00 0.00 72 1015.8
20260503032507 7 303 0.0 0.0 0.00 0.00 0.00 72 1015.8
20260503032007 8 303 0.0 0.0 0.00 0.00 0.00 71 1015.8
20260503031522 8 303 0.0 0.0 0.00 0.00 0.00 69 1015.8
20260503031008 8 303 0.0 0.0 0.00 0.00 0.00 66 1015.9
20260503030508 8 303 0.0 0.0 0.00 0.00 0.00 64 1015.9
20260503030024 8 303 0.0 3.2 0.00 0.00 0.00 64 1015.8
20260503025507 8 303 0.0 3.2 0.00 0.00 0.00 62 1015.8
20260503025008 9 303 0.0 0.0 0.00 0.00 0.00 62 1015.8
20260503024510 9 303 0.0 0.0 0.00 0.00 0.00 61 1015.7
20260503024006 9 303 0.0 3.2 0.00 0.00 0.00 60 1015.8
20260503023506 10 303 0.0 3.2 0.00 0.00 0.00 60 1015.8
20260503023015 10 303 0.0 3.2 0.00 0.00 0.00 58 1015.8
20260503022503 10 303 0.0 0.0 0.00 0.00 0.00 57 1015.7
20260503022010 10 303 0.0 0.0 0.00 0.00 0.00 56 1015.7
20260503021518 10 303 0.0 3.2 0.00 0.00 0.00 57 1015.7
20260503021006 11 303 0.0 3.2 0.00 0.00 0.00 55 1015.6
20260503020507 11 303 0.0 3.2 0.00 0.00 0.00 53 1015.5
20260503020011 11 303 0.0 3.2 0.00 0.00 0.00 53 1015.5
20260503015504 11 303 0.0 3.2 0.00 0.00 0.00 54 1015.4
20260503015003 11 303 0.0 3.2 0.00 0.00 0.00 53 1015.5
20260503014510 11 303 0.0 4.8 0.00 0.00 0.00 53 1015.3
20260503014004 11 303 0.0 4.8 0.00 0.00 0.00 53 1015.2
20260503013504 11 290 0.0 3.2 0.00 0.00 0.00 52 1015.2
20260503013012 12 294 0.0 4.8 0.00 0.00 0.00 54 1015.1
20260503012506 12 214 0.0 4.8 0.00 0.00 0.00 55 1015.0
20260503012005 12 216 0.0 4.8 0.00 0.00 0.00 56 1014.9
20260503011517 12 289 0.0 4.8 0.00 0.00 0.00 58 1014.8
20260503011007 12 302 0.0 4.8 0.00 0.00 0.00 59 1014.7
20260503010506 12 226 0.0 3.2 0.00 0.00 0.00 65 1014.6
20260503010021 12 279 0.0 9.7 0.00 0.00 0.00 62 1014.5
20260503005508 12 279 0.0 9.7 0.00 0.00 0.00 64 1014.4
20260503005003 12 272 1.6 6.4 0.00 0.00 0.00 63 1014.2
20260503004524 12 207 0.0 3.2 0.00 0.00 0.00 65 1014.1
20260503004003 12 207 0.0 3.2 0.00 0.00 0.00 64 1014.1
20260503003504 12 196 0.0 3.2 0.00 0.00 0.00 63 1013.9
20260503003010 12 196 0.0 3.2 0.00 0.00 0.00 64 1013.9
20260503002505 12 140 0.0 3.2 0.00 0.00 0.00 62 1013.8
20260503002007 13 134 0.0 3.2 0.00 0.00 0.00 63 1013.7
20260503001516 13 134 0.0 0.0 0.00 0.00 0.00 60 1013.6
20260503001009 13 134 0.0 0.0 0.00 0.00 0.00 60 1013.6
20260503000507 13 134 0.0 0.0 0.00 0.00 0.00 58 1013.5
20260503000021 13 134 0.0 0.0 0.00 0.00 0.00 58 1013.5
20260502235507 13 134 0.0 0.0 0.00 0.00 0.00 57 1013.4
20260502235011 13 134 0.0 0.0 0.00 0.00 0.00 55 1013.4
20260502234522 13 134 0.0 0.0 0.00 0.00 0.00 54 1013.2
20260502234003 13 134 0.0 0.0 0.00 0.00 0.00 53 1013.2
20260502233502 13 134 0.0 0.0 0.00 0.00 0.00 52 1013.2
20260502233019 13 134 0.0 0.0 0.00 0.00 0.00 53 1013.1
20260502232504 14 134 0.0 0.0 0.00 0.00 0.00 51 1013.1
20260502232004 14 134 0.0 0.0 0.00 0.00 0.00 51 1013.0
20260502231514 14 134 0.0 0.0 0.00 0.00 0.00 51 1012.9
20260502231006 14 134 0.0 0.0 0.00 0.00 0.00 48 1012.8
20260502230507 14 134 0.0 0.0 0.00 0.00 0.00 50 1012.8
20260502230023 15 134 0.0 0.0 0.00 0.00 0.00 50 1012.7
20260502225507 15 134 0.0 3.2 0.00 0.00 0.00 48 1012.7
20260502225005 15 134 0.0 3.2 0.00 0.00 0.00 49 1012.5
20260502224521 15 134 0.0 0.0 0.00 0.00 0.00 46 1012.5
20260502224007 15 134 0.0 0.0 0.00 0.00 0.00 48 1012.5
20260502223508 15 134 0.0 3.2 0.00 0.00 0.00 47 1012.5
20260502223022 15 134 0.0 3.2 0.00 0.00 0.00 48 1012.5
20260502222503 15 134 0.0 3.2 0.00 0.00 0.00 49 1012.4
20260502222004 15 134 0.0 3.2 0.00 0.00 0.00 46 1012.3
20260502221510 15 134 0.0 3.2 0.00 0.00 0.00 42 1012.3
20260502221011 15 96 0.0 4.8 0.00 0.00 0.00 43 1012.2
20260502220507 15 96 1.6 4.8 0.00 0.00 0.00 42 1012.2
20260502220014 16 117 1.6 4.8 0.00 0.00 0.00 42 1012.1
20260502215506 16 126 1.6 3.2 0.00 0.00 0.00 41 1012.1
20260502215008 16 153 0.0 4.8 0.00 0.00 0.00 41 1012.0
20260502214534 16 118 3.2 4.8 0.00 0.00 0.00 40 1012.0
20260502214007 16 203 0.0 6.4 0.00 0.00 0.00 44 1011.9
20260502213507 16 129 3.2 6.4 0.00 0.00 0.00 40 1012.0
20260502213029 16 101 1.6 4.8 0.00 0.00 0.00 43 1012.0
20260502212508 16 229 1.6 9.7 0.00 0.00 0.00 42 1011.9
20260502212009 16 128 4.8 9.7 0.00 0.00 0.00 40 1011.9
20260502211522 16 98 1.6 9.7 0.00 0.00 0.00 42 1011.8
20260502211003 16 86 4.8 9.7 0.00 0.00 0.00 41 1011.8
20260502210504 16 32 0.0 11.3 0.00 0.00 0.00 42 1011.8
20260502210025 16 109 4.8 11.3 0.00 0.00 0.00 40 1011.8
20260502205509 16 71 3.2 9.7 0.00 0.00 0.00 43 1011.7
20260502205006 16 130 1.6 9.7 0.00 0.00 0.00 42 1011.8
20260502204518 15 73 0.0 4.8 0.00 0.00 0.00 43 1011.7
20260502204008 15 111 3.2 16.1 0.00 0.00 0.00 41 1011.8
20260502203506 15 9 1.6 16.1 0.00 0.00 0.00 43 1011.8
20260502203022 15 134 3.2 12.9 0.00 0.00 0.00 43 1011.9
20260502202506 15 105 8.0 12.9 0.00 0.00 0.00 42 1011.9
20260502202008 15 128 1.6 11.3 0.00 0.00 0.00 45 1012.0
20260502201524 14 119 1.6 11.3 0.00 0.00 0.00 43 1012.1
20260502201010 14 80 1.6 9.7 0.00 0.00 0.00 44 1012.2
20260502200503 14 135 1.6 14.5 0.00 0.00 0.00 43 1012.3
20260502200014 15 121 6.4 14.5 0.00 0.00 0.00 43 1012.2
20260502195506 14 77 0.0 12.9 0.00 0.00 0.00 43 1012.3
20260502195011 14 105 4.8 12.9 0.00 0.00 0.00 43 1012.4
20260502194516 14 120 3.2 9.7 0.00 0.00 0.00 44 1012.5
20260502194006 14 91 1.6 9.7 0.00 0.00 0.00 43 1012.6
20260502193511 14 110 4.8 12.9 0.00 0.00 0.00 42 1012.8
20260502193018 14 84 3.2 12.9 0.00 0.00 0.00 43 1013.0
20260502192509 14 111 3.2 9.7 0.00 0.00 0.00 43 1013.1
20260502192008 14 116 1.6 11.3 0.00 0.00 0.00 43 1013.1
20260502191521 14 137 3.2 11.3 0.00 0.00 0.00 44 1013.2
20260502191008 13 69 0.0 6.4 0.00 0.00 0.00 43 1013.2
20260502190510 13 75 3.2 8.0 0.00 0.00 0.00 43 1013.2
20260502190032 13 90 3.2 8.0 0.00 0.00 0.00 43 1013.1
20260502185507 13 118 0.0 6.4 0.00 0.00 0.00 45 1013.3
20260502185004 13 107 3.2 8.0 0.00 0.00 0.00 41 1013.3
20260502184514 13 72 1.6 9.7 0.00 0.00 0.00 43 1013.4
20260502184005 13 70 1.6 9.7 0.00 0.00 0.00 44 1013.4
20260502183503 13 119 4.8 9.7 0.00 0.00 0.00 44 1013.5
20260502183018 13 76 1.6 6.4 0.00 0.00 0.00 43 1013.6
20260502182504 13 88 3.2 11.3 0.00 0.00 0.00 43 1013.8
20260502182011 13 70 4.8 11.3 0.00 0.00 0.00 43 1013.8
20260502181522 13 84 4.8 12.9 0.00 0.00 0.00 44 1013.8
20260502181008 13 55 0.0 12.9 0.00 0.00 0.00 46 1013.8
20260502180509 13 67 3.2 11.3 0.00 0.00 0.00 45 1013.8
20260502170509 12 84 1.6 4.8 0.00 0.00 0.00 46 1014.5
20260502164011 12 54 1.6 8.0 0.00 0.00 0.00 45 1014.9
20260502163509 12 77 3.2 8.0 0.00 0.00 0.00 45 1014.9
20260502163019 12 49 1.6 6.4 0.00 0.00 0.00 46 1014.9
20260502162504 12 67 1.6 9.7 0.00 0.00 0.00 45 1015.0
20260502162008 12 24 1.6 9.7 0.00 0.00 0.00 47 1015.0
20260502161516 12 80 1.6 4.8 0.00 0.00 0.00 47 1015.0
20260502161007 12 75 1.6 6.4 0.00 0.00 0.00 49 1015.1
20260502160508 12 11 0.0 6.4 0.00 0.00 0.00 49 1014.9
20260502152005 12 286 0.0 6.4 0.00 0.00 0.00 53 1015.3
20260502151522 12 298 0.0 6.4 0.00 0.00 0.00 52 1015.3
20260502151003 12 277 0.0 3.2 0.00 0.00 0.00 52 1015.2
20260502150508 12 213 0.0 3.2 0.00 0.00 0.00 52 1015.0
20260502130511 12 24 0.0 3.2 0.00 0.00 0.00 70 1014.4
20260502123512 12 9 0.0 3.2 0.00 0.00 0.00 71 1014.4
20260502123028 12 57 0.0 3.2 0.00 0.00 0.00 72 1013.9
20260502122512 11 101 0.0 3.2 0.00 0.00 0.00 72 1013.8
20260502122011 11 103 0.0 3.2 0.00 0.00 0.00 72 1013.7
20260502121526 11 123 0.0 3.2 0.00 0.00 0.00 72 1013.7
20260502121010 11 123 0.0 3.2 0.00 0.00 0.00 72 1013.8
20260502120511 11 128 0.0 3.2 0.00 0.00 0.00 74 1014.0
20260502115509 11 163 0.0 3.2 0.00 0.00 0.00 73 1014.0
20260502115007 11 163 0.0 3.2 0.00 0.00 0.00 73 1013.8
20260502114537 11 163 0.0 3.2 0.00 0.00 0.00 73 1013.8
20260502114005 11 215 0.0 3.2 0.00 0.00 0.00 74 1014.0
20260502113507 11 206 0.0 3.2 0.00 0.00 0.00 75 1014.0
20260502113025 11 242 0.0 3.2 0.00 0.00 0.00 76 1013.6
20260502112507 11 252 0.0 3.2 0.00 0.00 0.00 75 1013.6
20260502112009 11 275 0.0 3.2 0.00 0.00 0.00 76 1013.7
20260502111526 11 275 0.0 3.2 0.00 0.00 0.00 76 1013.8
20260502111011 11 275 0.0 3.2 0.00 0.00 0.00 77 1013.7
20260502110510 11 275 0.0 1.6 0.00 0.00 0.00 76 1013.7
20260502110028 11 275 0.0 3.2 0.00 0.00 0.00 76 1013.6
20260502105512 11 275 0.0 3.2 0.00 0.00 0.00 77 1013.5
20260502105011 11 275 0.0 3.2 0.00 0.00 0.00 77 1013.5
20260502104530 11 275 0.0 3.2 0.00 0.00 0.00 78 1013.6
20260502104009 11 275 0.0 3.2 0.00 0.00 0.00 79 1013.6
20260502103514 11 275 0.0 3.2 0.00 0.00 0.00 79 1013.5
20260502103018 11 275 0.0 0.0 0.00 0.00 0.00 79 1013.5
20260502102507 11 275 0.0 0.0 0.00 0.00 0.00 79 1013.6
20260502102006 11 275 0.0 1.6 0.00 0.00 0.00 80 1013.6
20260502101526 11 275 0.0 3.2 0.00 0.00 0.00 80 1013.5
20260502101011 11 275 0.0 3.2 0.00 0.00 0.00 81 1013.7
20260502100507 11 279 0.0 3.2 0.00 0.00 0.00 81 1013.7
20260502091524 11 288 0.0 0.0 0.00 0.00 0.00 85 1014.3
20260502091010 11 288 0.0 0.0 0.00 0.00 0.00 85 1014.3
20260502090507 11 288 0.0 3.2 0.00 0.00 0.00 85 1014.1
20260502071516 11 292 0.0 3.2 0.00 0.00 0.00 83 1012.8
20260502071006 11 292 0.0 3.2 0.00 0.00 0.00 83 1012.9
20260502070503 11 292 0.0 1.6 0.00 0.00 0.00 83 1012.9
20260502070003 11 292 0.0 3.2 0.00 0.00 0.00 83 1012.8
20260502065504 11 292 0.0 3.2 0.00 0.00 0.00 83 1012.9
20260502065002 11 292 0.0 0.0 0.00 0.00 0.00 83 1012.9
20260502064512 11 292 0.0 3.2 0.00 0.00 0.00 83 1013.0
20260502064005 11 292 0.0 3.2 0.00 0.00 0.00 83 1013.1
20260502063504 11 292 0.0 0.0 0.00 0.00 0.00 83 1013.0